Location: ???
(38.4616°N, 106.2010°E)
Time: 21:09:16
(UTC+00:00)

Daily predictions for brighter satellites

Satellite Brightness Start Highest point End
(mag) Time Altitude Azimuth Time Altitude Azimuth Time Altitude Azimuth
Meteor 2-14 Rocket 4.5 12:41:41 10° S 12:47:48 76° E 12:53:58 10° N
SPOT 3 Rocket 4.0 12:42:56 10° SE 12:47:52 46° ENE 12:52:50 10° N
CZ-2C R/B 3.9 12:46:46 10° NNE 12:51:28 57° E 12:56:09 10° S
Cosmos 2322 Rocket 2.3 12:50:59 10° SSW 12:56:36 86° WNW 13:02:14 10° NNE
Cosmos 2237 4.3 12:55:45 10° S 13:01:19 57° ESE 13:06:57 10° NNE
Geosat 4.5 12:57:08 10° SE 13:01:56 49° ENE 13:06:47 10° NNW
Resurs 01 Rocket 2.2 13:01:50 10° SE 13:05:58 41° ENE 13:10:08 10° N
Cosmos 1745 Rocket 4.2 13:05:13 10° SSE 13:11:10 53° E 13:17:13 10° NNE
Cosmos 2058 Rocket 4.3 13:09:33 10° NNW 13:13:50 44° W 13:18:03 10° SSW
SL-08 ROCKET BODY 4.5 13:11:09 10° S 13:16:57 59° E 13:22:52 10° NNE
USA 215 3.7 13:11:53 10° ENE 13:17:49 36° SE 13:23:43 10° SSW
COSMOS 2428 3.9 13:14:37 10° SSE 13:18:48 22° E 13:23:01 10° NE
Cosmos 1300 4.3 13:15:52 10° NNW 13:19:22 35° W 13:22:52 10° SSW
Cosmos 2322 4.1 13:16:24 10° S 13:21:42 41° ESE 13:27:01 10° NE
Cosmos 1758 Rocket 4.0 13:19:23 10° SSE 13:23:37 44° E 13:27:54 10° NNE
Cosmos 1626 Rocket 4.2 13:20:25 10° SSW 13:24:47 60° W 13:29:13 10° N
DELTA 2 R/B (1) 4.1 13:23:23 10° SW 13:28:26 36° SSE 13:33:30 10° E
Cosmos 2263 Rocket 3.4 13:25:38 10° NW 13:30:44 38° WSW 13:35:49 10° S
Cosmos 2219 Rocket 2.9 13:26:53 10° SSE 13:31:44 32° ESE 13:36:37 10° NE
Cosmos 2333 4.4 13:28:08 10° S 13:33:31 50° ESE 13:38:59 10° NNE
Cosmos 2360 Rocket 2.3 13:28:20 10° SSW 13:33:58 81° WNW 13:39:40 10° NNE
Cosmos 773 Rocket 4.4 13:30:24 10° S 13:35:23 44° ESE 13:40:24 10° NNE
Cosmos 1328 4.1 13:32:19 14° SSE 13:35:27 44° E 13:39:15 10° NNE
Cosmos 1818 4.0 13:32:21 10° SW 13:37:44 67° WNW 13:43:10 10° NNE
Cosmos 1455 2.2 13:34:32 10° N 13:38:21 62° E 13:40:58 19° SSE
OAO 3 Rocket 3.5 13:33:41 10° W 13:38:25 52° S 13:41:45 19° ESE
Resurs 1-3 4.3 13:35:15 10° S 13:39:30 51° W 13:43:48 10° NNW
Atlas Centaur 2 2.9 13:34:21 10° WSW 13:39:35 40° S 13:44:24 17° ESE
ERS-1 Rocket 4.3 13:36:49 15° ESE 13:39:40 25° ENE 13:43:42 10° NNE
OFEQ 5 4.5 13:40:50 24° ESE 13:42:16 57° S 13:44:54 10° WSW
BREEZE-M DEB (TANK) 3.3 13:34:01 10° SW 13:42:38 55° SSE 13:45:21 10° ENE
Alouette 2 Rocket 4.5 13:38:56 10° N 13:42:48 38° E 13:45:58 20° SE
ATLAS CENTAUR R/B 3.4 13:41:33 10° W 13:43:31 18° SW 13:46:16 11° S
Cosmos 2333 Rocket 2.5 13:38:59 10° S 13:44:20 45° ESE 13:49:44 10° NE
Cosmos 1953 Rocket 4.0 13:44:26 21° SSE 13:46:53 40° E 13:50:56 10° NNE
Cosmos 1703 3.1 13:43:43 13° S 13:47:07 74° E 13:51:00 10° N
SPOT 5 4.2 13:46:16 17° ESE 13:48:44 25° ENE 13:52:42 10° NNE
BREEZE M DEB (TANK) 4.0 13:45:13 10° S 13:48:48 37° ESE 13:59:17 10° ENE
BREEZE-M DEB (TANK) 3.2 13:48:35 10° NW 13:52:05 63° NNE 13:54:38 21° ESE
Landsat 7 4.0 13:50:36 22° SE 13:53:30 57° ENE 13:58:10 10° N
Cosmos 1709 Rocket 4.0 13:50:14 12° S 13:56:06 68° E 14:02:24 10° NNE
FALCON 9 R/B 2.7 13:56:09 10° SW 13:56:32 11° SW 13:56:32 11° SW
GEOS 3 Rocket 3.7 13:52:12 10° NE 13:57:39 89° ESE 14:03:01 10° SW
ATLAS CENTAUR R/B 3.3 13:56:20 10° N 13:58:31 15° NE 14:00:05 12° ENE
Nadezhda 1 Rocket 4.3 13:55:15 10° N 14:01:38 72° W 14:07:26 13° S
Spot 2 Rocket 3.5 13:58:39 23° SSE 14:01:53 77° ENE 14:07:00 10° N
Cosmos 1825 Rocket 3.6 13:58:01 12° S 14:02:02 83° W 14:06:31 10° N
ATLAS 5 CENTAUR R/B 3.1 14:00:07 10° WSW 14:03:54 36° NW 14:08:04 10° NNE
Cosmos 2278 Rocket 4.0 14:04:36 10° N 14:08:33 19° NE 14:11:29 13° E
USA 81 4.3 14:06:15 27° SSE 14:08:52 51° E 14:13:57 10° NNE
Meteor 2-10 Rocket 4.3 14:05:48 10° NNW 14:10:45 49° W 14:15:17 13° SSW
Cosmos 1844 Rocket 2.6 14:06:20 10° NNW 14:11:56 89° WSW 14:14:57 28° SSE
Meteor 1-11 4.1 14:07:54 18° S 14:12:04 73° E 14:17:44 10° NNE
Delta 2 Rocket 3.0 14:10:26 10° W 14:13:42 47° S 14:13:47 47° S
OAO 2 Rocket 3.4 14:09:58 10° WSW 14:15:12 60° S 14:17:53 28° ESE
H-2A ROCKET BODY 4.1 14:11:12 10° WSW 14:16:34 38° S 14:27:18 20° SE
IGS 5A 3.6 14:16:38 31° S 14:18:32 72° W 14:22:42 10° NNW
SPOT 1/Viking Rocket 3.5 14:18:11 30° SSE 14:20:49 88° ENE 14:26:01 10° NNW
CARTOSAT-1 3.7 14:21:13 40° SE 14:22:29 58° ENE 14:26:44 10° N
Cosmos 1315 Rocket 3.3 14:22:26 10° N 14:26:23 43° ENE 14:26:57 41° ESE
NOSS 3-3 (A) 3.9 14:20:45 10° SW 14:26:28 83° WNW 14:32:53 10° NNE
NOSS 3-3 (C) 3.9 14:20:50 10° SW 14:26:34 84° WNW 14:33:00 10° NNE
Cosmos 1892 4.4 14:31:37 20° ENE 14:31:37 20° ENE 14:33:38 10° NE
Cosmos 923 Rocket 4.4 14:35:14 40° SE 14:36:00 42° ESE 14:40:58 10° NNE
Terra 2.0 14:39:25 45° ESE 14:40:31 57° ENE 14:45:11 10° N
Cosmos-2242 4.2 14:38:27 10° NNW 14:42:29 38° W 14:44:31 24° SW
Resurs 01 Rocket 4.1 14:39:54 10° SW 14:42:37 16° W 14:45:21 10° NW
Cosmos 2221 3.0 14:43:28 10° N 14:47:40 44° E 14:47:50 44° E
Cosmos 1400 Rocket 4.4 14:44:40 10° NNW 14:48:07 29° W 14:49:32 23° SW
ATLAS 2AS CENTAUR R/B 4.2 14:42:06 10° NNW 14:48:31 29° NE 14:53:02 16° E
Cosmos 2154 Rocket 4.4 14:50:43 38° ESE 14:52:00 43° E 14:57:48 10° NNE
Cosmos 1980 3.7 14:54:43 49° SSE 14:55:54 61° ESE 15:01:28 10° NNE
Cosmos 2074 Rocket 3.9 14:55:52 41° S 14:58:16 81° E 15:04:29 10° N
Cosmos 2181 Rocket 4.2 14:53:39 10° NNW 14:59:55 66° W 15:02:40 34° SSW
USA 215 3.7 14:54:32 10° NE 15:00:58 61° NW 15:07:23 10° WSW
Cosmos 2058 3.2 15:02:56 52° ENE 15:02:56 52° ENE 15:06:31 10° NNE
COSMOS 2428 3.6 14:57:12 10° SW 15:02:40 48° WNW 15:08:09 10° NNE
Cosmos 2237 Rocket 2.1 15:12:37 54° S 15:13:58 81° ESE 15:19:42 10° NNE
DELTA 2 R/B (1) 3.4 15:08:59 10° WSW 15:14:35 85° SSE 15:18:09 23° E
Cosmos 2219 Rocket 3.7 15:10:34 10° WSW 15:15:34 33° WNW 15:20:37 10° N
ERS-1 Rocket 4.0 15:16:49 30° SW 15:18:14 36° W 15:22:53 10° NNW
Cosmos 1825 4.0 15:20:48 23° NE 15:20:48 23° NE 15:22:39 10° NNE
Thor Agena Rocket 3.9 15:14:35 10° NNE 15:19:09 47° E 15:19:09 47° E
Cosmos 1076 Rocket 3.6 15:20:30 71° NNE 15:20:30 71° NNE 15:24:23 10° N
Cosmos 2327 Rocket 4.4 15:18:48 54° S 15:20:19 82° E 15:26:29 10° N
MOS 1-B Rocket 4.4 15:16:26 10° NNE 15:23:34 51° E 15:24:34 48° SE
SPOT 5 4.1 15:25:30 31° SW 15:26:38 34° W 15:31:05 10° NNW
Cosmos 2151 4.2 15:29:28 32° NE 15:29:28 32° NE 15:32:18 10° NNE
Atlas Centaur 2 3.5 15:22:41 10° WSW 15:26:58 31° SW 15:26:58 31° SW
Cosmos 2333 Rocket 4.2 15:24:07 10° WSW 15:28:46 25° NW 15:33:29 10° N
NOSS 0 Rocket 4.3 15:26:41 25° SW 15:30:17 60° WNW 15:36:24 10° NNE
Spot 4 4.5 15:30:21 43° ENE 15:30:21 43° ENE 15:34:49 10° N
Cosmos 2084 3.9 15:26:02 10° NW 15:29:55 58° W 15:29:55 58° W
USA 267 3.8 15:27:21 28° E 15:30:40 52° NE 15:36:59 10° NW
Cosmos 158 Rocket 3.7 15:30:31 81° WSW 15:30:42 83° WNW 15:35:36 10° NNE
Cosmos 2112 Rocket 3.9 15:31:22 73° SSW 15:31:55 89° WNW 15:37:19 10° NNE
Cosmos 1295 Rocket 4.3 15:31:33 62° SSE 15:32:29 72° E 15:38:34 10° N
ATLAS CENTAUR R/B 2.8 15:34:09 10° NW 15:36:16 28° WNW 15:36:16 28° WNW
Cosmos 2344 3.4 15:35:20 35° SSW 15:38:52 85° ESE 15:46:38 10° NE
Cosmos 962 Rocket 4.5 15:38:39 59° SE 15:39:24 64° E 15:45:42 10° NNE
Cosmos 1869 4.5 15:37:06 10° NNW 15:40:23 37° WNW 15:40:23 37° WNW
Genesis I 4.2 15:41:41 45° NNW 15:41:41 45° NNW 15:44:54 10° NNE
BREEZE-M DEB (TANK) 3.1 15:48:47 52° NNE 15:48:47 52° NNE 15:54:19 10° NE
ALOS 2 4.0 15:49:22 30° NE 15:49:22 30° NE 15:52:42 10° N
Cosmos 2056 Rocket 3.9 15:45:39 10° N 15:50:59 55° ENE 15:51:09 54° ENE
Cosmos 2278 Rocket 2.2 15:47:30 10° NNW 15:53:06 64° WSW 15:53:19 63° WSW
Cosmos 1943 Rocket 4.1 15:53:31 10° N 15:57:30 19° NE 15:59:32 16° E
SL-16 R/B 2.2 15:59:12 66° E 15:59:12 66° E 16:04:29 10° NNE
GP-B 4.2 16:00:09 10° NNE 16:03:18 38° NE 16:03:18 38° NE
Cosmos 44 3.9 16:07:21 45° NNE 16:07:21 45° NNE 16:10:31 10° NNE
NOSS 3-4 (A) 3.8 16:05:03 10° NNW 16:12:15 89° ENE 16:13:50 61° SE
NOSS 3-4 (C) 3.8 16:05:09 10° NNW 16:12:22 88° ENE 16:13:58 60° SE
Cosmos 371 Rocket 4.3 16:12:35 10° N 16:16:47 39° NE 16:16:47 39° NE
Cosmos 864 Rocket 4.5 16:17:58 65° ESE 16:18:10 65° E 16:24:23 10° NNE
Terra 4.1 16:18:18 13° W 16:18:35 13° W 16:20:53 10° WNW
Cosmos 1606 4.3 16:15:06 10° N 16:17:23 33° N 16:17:23 33° N
Cosmos 2218 Rocket 3.9 16:18:38 71° ESE 16:18:59 73° E 16:25:18 10° N
Meteor 2-3 Rocket 3.9 16:23:48 61° ENE 16:23:48 61° ENE 16:29:03 10° NNE
Cosmos 2366 rocket 3.9 16:23:16 73° SE 16:23:37 76° E 16:29:59 10° N
IRIDIUM 103 4.4 16:26:22 72° NNE 16:26:22 72° NNE 16:31:06 10° N
Cosmos 1959 Rocket 4.3 16:32:12 84° S 16:32:26 90° W 16:38:39 10° N
Lacrosse 5 rocket 4.5 16:33:17 10° NNE 16:33:48 10° NNE 16:34:20 10° NNE
Meteor 1-26 Rocket 4.4 16:32:53 10° N 16:38:52 65° E 16:38:56 65° E
ATLAS 2AS CENTAUR R/B 2.7 16:32:47 10° NW 16:40:04 66° WSW 16:40:26 65° SW
Cosmos 2369 Rocket 3.5 16:40:08 10° N 16:45:03 31° ENE 16:46:18 28° E
COSMOS 2455 3.5 16:42:27 10° NNW 16:48:17 48° ENE 16:49:23 43° E
Cosmos 2228 Rocket 4.4 16:48:07 10° N 16:51:32 35° NE 16:51:32 35° NE
Helios 1A 4.3 17:07:40 37° NNW 17:07:40 37° NNW 17:10:15 10° NNW
CZ-4C R/B 4.1 17:01:32 10° NNW 17:08:19 39° NE 17:15:32 11° ESE
CZ-2D R/B 4.3 17:09:26 10° ENE 17:11:53 13° E 17:12:03 13° E
USA 267 3.8 17:14:40 42° WSW 17:14:40 42° WSW 17:19:54 10° WNW
Cosmos 1727 Rocket 3.9 17:08:54 10° N 17:15:08 72° W 17:15:17 72° WSW
Cosmos 494 Rocket 4.2 17:20:24 65° NE 17:20:24 65° NE 17:24:51 10° NNE
Cosmos 1934 Rocket 4.4 17:19:57 49° ESE 17:20:20 49° E 17:26:17 10° NNE
Cosmos 2239 Rocket 4.4 17:20:30 73° ESE 17:20:46 74° E 17:26:58 10° N
Cosmos 1943 3.1 17:35:53 85° NNW 17:35:53 85° NNW 17:41:26 10° NNE
Helios 1B rocket 3.6 17:32:03 10° N 17:34:51 42° N 17:34:51 42° N
Cosmos 1943 Rocket 2.4 17:36:07 10° NNW 17:41:01 57° WNW 17:41:01 57° WNW
SL-16 R/B 4.3 17:41:03 14° W 17:43:29 18° NW 17:47:19 10° N
Cosmos 1331 Rocket 4.1 17:39:54 10° NNW 17:45:08 72° ENE 17:45:08 72° ENE
Cosmos 1805 Rocket 4.4 17:50:13 45° NNW 17:50:13 45° NNW 17:53:23 10° N
RESURS DK-1 3.5 17:50:45 10° NNW 17:53:32 41° N 17:53:32 41° N
Cosmos 1110 Rocket 4.1 17:57:48 10° NNW 18:02:31 64° WNW 18:02:31 64° WNW
Cosmos 1269 Rocket 4.1 18:04:36 66° WNW 18:04:36 66° WNW 18:09:49 10° NNE
Cosmos 1238 Rocket 4.1 18:06:44 52° SE 18:07:40 58° E 18:13:06 10° NNE
MOZ.5/SAFIR/RUBIN 5/SL-8 4.3 18:07:39 50° E 18:08:00 51° ENE 18:12:37 10° N
SeaSat 1 2.5 18:04:06 10° NNE 18:08:50 71° E 18:08:50 71° E
Lacrosse 5 rocket 2.6 18:10:05 10° NNW 18:12:37 34° N 18:12:37 34° N
Resurs 1-4 Rocket 2.3 18:14:46 10° NNE 18:20:02 60° E 18:20:34 57° SE
Cosmos 1707 Rocket 4.1 18:16:37 10° NNW 18:20:10 51° NW 18:20:10 51° NW
IRAS Rocket 4.1 18:21:57 67° SSE 18:22:42 86° ENE 18:28:13 10° NNW
Cosmos 1302 Rocket 3.9 18:19:06 10° NNW 18:24:20 83° ENE 18:24:45 75° SE
Cosmos 1470 Rocket 3.8 18:24:46 64° ENE 18:24:46 64° ENE 18:28:59 10° NNE
Cosmos 389 Rocket 4.3 18:21:15 10° NNW 18:23:04 29° NNW 18:23:04 29° NNW
Spot 1 4.3 18:25:26 81° WSW 18:25:27 81° WSW 18:30:24 10° NNW
ISS -1.5 18:26:06 23° NNW 18:26:06 23° NNW 18:28:31 10° NNE
Cosmos 2123 Rocket 4.0 18:20:06 10° NNW 18:26:09 59° W 18:26:48 56° WSW
Cosmos 2369 Rocket 3.1 18:24:02 10° NW 18:28:03 32° W 18:28:03 32° W
ADEOS II 3.6 18:25:25 10° NE 18:29:51 27° E 18:31:30 23° SE
COSMOS 2455 4.2 18:29:01 10° NW 18:32:29 24° W 18:32:29 24° W
Cosmos 1633 Rocket 3.7 18:36:20 45° NW 18:36:20 45° NW 18:40:03 10° N
DELTA 2 DEB (DPAF) 4.2 18:36:43 69° NW 18:36:43 69° NW 18:40:48 10° NNW
IRS-1D 4.4 18:34:06 10° NNE 18:38:44 38° E 18:39:50 34° SE
Lacrosse 5 1.8 18:38:49 70° SSE 18:39:00 71° SE 18:44:04 10° NE
Cosmos 1656 Rocket 3.6 18:35:18 10° NNW 18:40:32 57° WSW 18:40:32 57° WSW
Cosmos 1862 Rocket 3.5 18:37:17 10° N 18:41:34 80° NW 18:41:34 80° NW
Cosmos 1153 Rocket 4.4 18:40:46 54° S 18:42:20 88° W 18:48:34 10° N
Cosmos 1459 Rocket 4.5 18:40:30 34° SE 18:42:49 51° E 18:48:40 10° NNE
Cosmos 1605 Rocket 4.3 18:45:50 45° WSW 18:47:08 51° W 18:53:17 10° N
DELTA 2 R/B (1) 3.7 18:48:32 52° SSE 18:48:32 52° SSE 18:53:06 10° ESE
SL-16 R/B 2.4 18:47:36 45° S 18:49:39 82° WSW 18:55:57 10° NNW
CZ-2D R/B 2.1 18:47:05 10° N 18:52:22 71° WNW 18:53:22 56° SW
Meteor 1-27 Rocket 4.3 18:47:54 10° NNW 18:53:06 40° W 18:53:23 40° W
AQUA 3.7 18:49:27 10° NNE 18:54:15 85° E 18:54:56 66° S
Meteor 1-25 Rocket 4.1 18:53:10 56° SSW 18:54:24 79° W 19:00:02 10° N
CZ-4C R/B 3.2 18:49:50 10° NW 18:57:13 54° WSW 19:00:35 35° S
SEDSat Delta rocket 4.2 18:59:15 45° SSW 18:59:43 46° S 19:05:54 10° ESE
Okean 1-7 3.9 18:56:25 10° N 19:00:39 45° E 19:02:26 29° SE
SL-4 R/B 4.0 19:02:19 12° NW 19:02:19 12° NW 19:03:01 10° NNW
CBERS-1 4.1 18:57:44 10° NNE 19:02:52 68° ESE 19:04:25 44° SSE
Cosmos 1933 Rocket 3.7 19:09:02 54° W 19:09:13 55° W 19:13:29 10° N
Cosmos 1869 Rocket 4.0 19:11:04 40° SSE 19:12:17 55° E 19:16:31 10° NNE
NPP 3.9 19:08:05 10° N 19:13:19 53° WNW 19:14:47 41° WSW
Cosmos 407 Rocket 4.4 19:13:32 26° SSE 19:16:02 42° ESE 19:21:03 10° NNE
Cosmos 1515 4.0 19:13:25 10° N 19:17:13 61° E 19:18:14 42° SE
CZ-4C R/B 4.4 19:18:30 32° WNW 19:18:30 32° WNW 19:21:24 10° NNW
IDEFIX/ARIANE 42P 4.4 19:14:33 10° NE 19:18:47 25° E 19:22:58 10° SSE
Cosmos 1184 Rocket 3.7 19:19:58 39° NW 19:19:58 39° NW 19:22:27 10° N
Cosmos 1437 Rocket 4.3 19:17:53 10° N 19:21:37 34° ENE 19:24:45 13° SE
COSMOS 2406 4.0 19:18:41 25° SSE 19:21:37 44° ESE 19:27:05 10° NE
Cosmos 1602 4.2 19:21:54 44° WNW 19:21:54 44° WNW 19:25:32 10° N
Cosmos 1703 Rocket 3.5 19:18:57 10° N 19:23:27 85° W 19:24:50 44° S
Cosmos 2173 Rocket 4.0 19:21:27 36° SSW 19:24:13 72° W 19:30:35 10° N
Cosmos 2251 Rocket 4.0 19:23:19 36° WSW 19:24:47 45° WNW 19:29:48 10° N
ARIANE 5 R/B 3.1 19:20:36 10° NNE 19:25:31 50° E 19:28:24 24° SSE
Meteor 1-19 Rocket 4.1 19:20:30 10° N 19:26:13 86° W 19:29:22 27° S
IRS-1C 4.2 19:23:31 10° NNE 19:28:52 75° ESE 19:31:32 30° S
Cosmos 2016 Rocket 3.9 19:29:50 29° S 19:33:12 90° ENE 19:39:23 10° N
Cosmos 1140 Rocket 4.3 19:30:22 22° SSE 19:33:22 45° ESE 19:38:19 10° NNE
CZ-4B R/B 4.0 19:29:54 10° N 19:34:44 43° WNW 19:36:24 33° WSW
Cosmos 2082 Rocket 4.2 19:31:15 10° SSE 19:35:29 22° E 19:39:42 10° NE
Cosmos 614 Rocket 3.8 19:38:34 35° SSW 19:40:46 83° WNW 19:45:53 10° NNE
Cosmos 1864 Rocket 4.4 19:36:57 24° S 19:40:51 86° E 19:47:01 10° N
Meteor 1-4 Rocket 4.3 19:41:19 10° NW 19:43:29 20° WNW 19:43:29 20° WNW
Cosmos 1992 Rocket 4.3 19:40:13 10° NNW 19:45:12 45° WSW 19:47:18 30° SSW
H-2A R/B (2) 4.0 19:48:23 12° SSE 19:48:23 12° SSE 19:49:05 10° SSE
GPS 2-04 Rocket1 2.7 19:49:06 43° SW 19:49:53 53° S 19:53:43 10° E
Meteor 1-11 Rocket 4.0 19:47:49 16° S 19:52:15 64° E 19:57:43 10° NNE
Cosmos 1833 Rocket 3.2 19:51:04 18° S 19:55:05 55° ESE 20:00:33 10° NNE
BREEZE-M DEB (TANK) 4.2 19:54:13 10° NW 19:57:26 65° NE 20:09:45 10° ESE
Resurs 1-4 Rocket 3.9 19:55:59 10° NNW 19:59:19 17° WNW 20:01:39 13° W
ASTRO E2 3.7 20:01:21 27° S 20:01:55 28° S 20:05:21 10° ESE
Cosmos 405 Rocket 4.1 20:01:30 23° W 20:02:22 24° WNW 20:05:35 10° NNW
Aureole 1 Rocket 3.2 20:00:21 23° S 20:02:36 67° ESE 20:07:23 10° NNE
Cosmos 1816 Rocket 4.5 19:59:28 10° N 20:05:52 77° W 20:12:11 10° S
ADEOS II 3.0 20:04:49 10° N 20:09:32 35° WNW 20:12:27 20° WSW
Cosmos 1536 2.8 20:08:32 18° S 20:11:30 85° E 20:15:35 10° N
CSL-04 DEB 4.5 20:09:04 10° SSE 20:13:20 89° ENE 20:17:31 10° NNW
SL-08 R/B 3.5 20:10:02 16° S 20:13:37 51° W 20:18:15 10° NNW
Okean 3 3.4 20:11:03 10° NNW 20:15:11 64° W 20:18:52 13° S
Cosmos 1190 Rocket 4.2 20:17:29 19° SW 20:21:07 59° WNW 20:26:17 10° N
Lacrosse 5 3.6 20:18:18 10° W 20:22:23 24° NNW 20:26:29 10° NNE
Cosmos 1733 Rocket 3.0 20:19:26 15° SSW 20:22:58 76° W 20:27:18 10° N
Cosmos 2233 Rocket 4.0 20:18:41 13° SSW 20:24:14 69° W 20:30:26 10° N
Cosmos 1954 Rocket 4.0 20:22:10 13° SSW 20:26:49 89° ESE 20:32:07 10° NNE
Meteor 1-28 Rocket 3.8 20:25:56 17° SSW 20:28:19 36° W 20:31:46 10° NNW
CZ-2C R/B 3.8 20:23:55 10° NNE 20:28:21 35° E 20:32:38 10° SSE
Cosmos 2221 Rocket 3.8 20:26:12 10° NNW 20:30:29 51° W 20:34:44 10° SSW
Cosmos 1656 3.5 20:26:29 10° NNW 20:31:54 74° WSW 20:37:19 10° SSE
SL-16 R/B 4.4 20:33:18 10° W 20:34:06 10° W 20:34:53 10° W
Cosmos 2369 4.5 20:28:41 10° NNW 20:34:20 58° ENE 20:39:58 10° SE
MSX 3.8 20:34:51 10° NNE 20:40:36 83° WNW 20:46:19 10° SSW
Cosmos 220 Rocket 4.2 20:38:34 10° NNW 20:42:40 48° WSW 20:46:42 10° S
Tsikada Rocket 4.5 20:37:55 10° NNW 20:43:53 43° W 20:49:52 10° SSW
Meteor 1-23 Rocket 4.3 20:39:47 10° N 20:45:32 87° W 20:51:18 10° S
Cosmos 1743 2.8 20:42:55 10° S 20:46:42 77° E 20:50:31 10° N
deb Chang Zheng 4 4.1 20:43:42 10° NNE 20:47:54 58° ESE 20:52:05 10° S
SL-8 R/B 4.1 20:44:08 11° WSW 20:48:45 59° NNW 20:53:30 10° NE
ATLAS 2A CENTAUR R/B 4.3 20:41:38 10° WSW 20:48:57 24° SSW 20:51:58 10° SE
Cosmos 1980 Rocket 3.4 20:47:38 10° NNW 20:53:10 48° ENE 20:58:37 10° SE
Cosmos 1666 4.1 20:50:25 11° SW 20:53:13 23° WNW 20:56:18 10° NNW
CBERS 1 LM4 rocket 4.4 20:52:05 10° NNE 20:56:53 81° ESE 21:01:36 10° SSW
Cosmos 2278 4.4 20:52:15 10° NNW 20:57:56 61° ENE 21:03:34 10° SE
H-2A R/B 2.6 20:53:57 10° S 20:58:09 40° W 21:02:19 10° NNW
IDEFIX/ARIANE 42P 3.3 20:53:40 10° N 20:58:24 37° WNW 21:03:07 10° SW
Cosmos 1850 Rocket 4.4 20:54:39 10° S 20:59:56 69° ESE 21:05:15 10° NNE
CZ-2C R/B 3.8 20:56:21 10° N 20:59:58 32° WNW 21:03:36 10° SW
Cosmos 1356 3.9 20:57:35 10° SSW 21:00:52 42° WNW 21:04:10 10° N
ARIANE 5 R/B 4.1 21:00:47 10° NNW 21:04:14 19° WNW 21:07:41 10° WSW
ERS-2 3.2 21:02:49 10° SSW 21:05:54 26° W 21:09:01 10° NW
ADEOS 4.0 21:01:37 10° NNE 21:06:50 67° ESE 21:12:01 10° S
CZ-4C R/B 4.1 21:06:16 10° SSW 21:08:59 23° W 21:11:40 10° NW
ATLAS 5 CENTAUR R/B 4.3 21:06:43 10° NNW 21:12:03 36° NE 21:18:06 10° ESE
